TimeMST,TemperatureF,Dew PointF,Humidity,Sea Level PressureIn,VisibilityMPH,Wind Direction,Wind SpeedMPH,Gust SpeedMPH,PrecipitationIn,Events,Conditions,WindDirDegrees,DateUTC
12:58 AM,43.7,32.5,65,30.02,10.0,NNW,5.8,-,N/A,,Clear,340,2014-02-06 07:58:00
1:58 AM,42.3,31.8,67,30.02,10.0,NNE,6.9,-,N/A,,Clear,20,2014-02-06 08:58:00
2:58 AM,42.8,32.0,66,30.02,10.0,North,6.9,-,N/A,,Clear,360,2014-02-06 09:58:00
3:58 AM,41.2,32.4,71,30.01,10.0,North,5.8,-,N/A,,Clear,360,2014-02-06 10:58:00
4:58 AM,40.8,32.9,73,30.02,10.0,North,8.1,-,N/A,,Clear,350,2014-02-06 11:58:00
5:58 AM,41.7,33.1,71,30.02,10.0,North,8.1,-,N/A,,Clear,350,2014-02-06 12:58:00
6:58 AM,43.2,32.9,67,30.03,10.0,NNW,2.3,-,N/A,,Scattered Clouds,340,2014-02-06 13:58:00
7:58 AM,43.7,34.0,69,30.03,10.0,North,3.5,-,N/A,,Overcast,360,2014-02-06 14:58:00
8:58 AM,46.8,34.0,61,30.04,10.0,NE,4.6,-,N/A,,Mostly Cloudy,40,2014-02-06 15:58:00
9:58 AM,50.5,34.7,55,30.06,10.0,NNE,2.3,-,N/A,,Mostly Cloudy,20,2014-02-06 16:58:00
10:58 AM,52.0,34.2,51,30.05,10.0,NE,5.8,-,N/A,,Mostly Cloudy,40,2014-02-06 17:58:00
11:58 AM,53.6,34.9,49,30.05,10.0,NNE,1.2,-,N/A,,Mostly Cloudy,30,2014-02-06 18:58:00
12:58 PM,56.7,34.5,43,30.01,10.0,Variable,5.8,-,N/A,,Mostly Cloudy,0,2014-02-06 19:58:00
1:58 PM,60.6,34.0,37,29.96,10.0,Variable,5.8,-,N/A,,Mostly Cloudy,0,2014-02-06 20:58:00
2:58 PM,60.3,33.4,37,29.95,10.0,Variable,4.6,-,N/A,,Partly Cloudy,0,2014-02-06 21:58:00
3:38 PM,60.8,32.0,34,29.94,10.0,SSE,4.6,-,N/A,,Mostly Cloudy,160,2014-02-06 22:38:00
3:48 PM,60.8,32.0,34,29.94,10.0,South,2.3,-,N/A,,Scattered Clouds,190,2014-02-06 22:48:00
3:58 PM,60.3,33.4,37,29.94,10.0,South,2.3,-,N/A,,Scattered Clouds,170,2014-02-06 22:58:00
4:58 PM,60.4,33.6,37,29.93,10.0,ESE,4.6,-,N/A,,Mostly Cloudy,120,2014-02-06 23:58:00
5:58 PM,60.3,33.4,37,29.93,10.0,SE,3.5,-,N/A,,Mostly Cloudy,140,2014-02-07 00:58:00
6:58 PM,59.4,34.7,40,29.94,10.0,South,2.3,-,N/A,,Overcast,170,2014-02-07 01:58:00
7:58 PM,58.6,34.7,41,29.93,10.0,East,3.5,-,N/A,,Overcast,90,2014-02-07 02:58:00
8:58 PM,56.7,37.8,49,29.94,10.0,Calm,Calm,-,N/A,,Mostly Cloudy,0,2014-02-07 03:58:00
9:58 PM,55.9,38.8,53,29.94,10.0,NW,2.3,-,N/A,,Mostly Cloudy,310,2014-02-07 04:58:00
10:58 PM,54.5,40.6,60,29.94,10.0,NNW,1.2,-,N/A,,Mostly Cloudy,340,2014-02-07 05:58:00
11:58 PM,54.0,40.5,60,29.94,10.0,Calm,Calm,-,N/A,,Overcast,0,2014-02-07 06:58:00